This is the latest recevied weather packets stored in our database for station/object WA6OOO. If no packets are shown the sender has not sent any weather packets the latest 10 day(s).
| Time | Temp. | Humidity | Pressure | Rain* | Wind** | Luminosity | Snow |
|---|---|---|---|---|---|---|---|
| 1788681202 | 19.44° C | 71% | 1016.6 hPa | 0 mm | - | 0 W/m² | - |
| 1788680897 | 18.89° C | 74% | 1016.4 hPa | 0 mm | - | 0 W/m² | - |
| 1788680597 | 18.89° C | 75% | 1016.4 hPa | 0 mm | - | 0 W/m² | - |
| 1788680296 | 19.44° C | 75% | 1016.4 hPa | 0 mm | - | 0 W/m² | - |
| 1788679991 | 18.89° C | 76% | 1016.5 hPa | 0 mm | - | 0 W/m² | - |
| 1788679687 | 18.89° C | 76% | 1016.5 hPa | 0 mm | - | 0 W/m² | - |
| 1788679383 | 18.89° C | 77% | 1016.5 hPa | 0 mm | - | 0 W/m² | - |
| 1788679078 | 18.89° C | 77% | 1016.6 hPa | 0 mm | - | 0 W/m² | - |
| 1788678778 | 18.89° C | 77% | 1016.5 hPa | 0 mm | - | 0 W/m² | - |
| 1788678475 | 18.89° C | 78% | 1016.3 hPa | 0 mm | - | 0 W/m² | - |
| 1788678170 | 18.89° C | 78% | 1016.5 hPa | 0 mm | - | 0 W/m² | - |
| 1788677870 | 18.89° C | 77% | 1016.4 hPa | 0 mm | - | 0 W/m² | - |
| 1788677565 | 19.44° C | 77% | 1016.4 hPa | 0 mm | - | 0 W/m² | - |
| 1788677261 | 19.44° C | 77% | 1016.4 hPa | 0 mm | - | 0 W/m² | - |
| 1788676956 | 19.44° C | 77% | 1016.3 hPa | 0 mm | - | 0 W/m² | - |
| 1788676651 | 19.44° C | 75% | 1016.5 hPa | 0 mm | - | 0 W/m² | - |
| 1788676347 | 19.44° C | 74% | 1016.4 hPa | 0 mm | - | 0 W/m² | - |
| 1788676042 | 20° C | 74% | 1016.4 hPa | 0 mm | - | 0 W/m² | - |
| 1788675741 | 19.44° C | 74% | 1016.4 hPa | 0 mm | - | 0 W/m² | - |
| 1788675437 | 19.44° C | 76% | 1016.4 hPa | 0 mm | - | 0 W/m² | - |
| 1788675133 | 18.33° C | 78% | 1016.3 hPa | 0 mm | - | 0 W/m² | - |
| 1788674829 | 18.89° C | 79% | 1016.3 hPa | 0 mm | - | 0 W/m² | - |
| 1788674526 | 18.89° C | 80% | 1016.4 hPa | 0 mm | - | 0 W/m² | - |
| 1788674221 | 18.89° C | 79% | 1016.5 hPa | 0 mm | - | 0 W/m² | - |
| 1788673916 | 18.89° C | 81% | 1016.5 hPa | 0 mm | - | 0 W/m² | - |
* Rain latest hour (hover to see other rain measurements)
** Current wind speed in m/s (hover to see current wind gust speed)